Home   Weather   Clermont-Ferrand   Past weeks
Flag for France

Past Weather in Clermont-Ferrand, Auvergne-Rhône-Alpes, France — October 2017

Now
54 °F

Cool.


Feels Like: 52 °F
Forecast: 57 / 48 °F
Wind: 7 mph from South

Location: Clermont Airport-Ferrand

Current Time: Oct 21, 2019 at 12:03:37 am

Latest Report: Oct 20, 2019 at 11:00 pm


Visibility: N/A

Pressure: 29.80 "Hg

Humidity: 88%

Dew Point: 50 °F

Location of Clermont-FerrandLocation

October 2017 Weather in Clermont-Ferrand — Graph

°F

High & Low Weather Summary for October 2017

 TemperatureHumidityPressure
High84 °F (Oct 15, 5:00 pm)100% (Oct 1, 4:00 am)30.48 "Hg (Oct 1, 4:00 am)
Low28 °F (Oct 31, 7:00 am)16% (Oct 17, 4:30 pm)29.83 "Hg (Oct 19, 4:00 am)
Average57 °F71%30.21 "Hg
* Reported Oct 1 12:00 am — Oct 31 11:30 pm, Clermont-Ferrand. Weather by CustomWeather, © 2019

Note: Actual official high and low records may vary slightly from our data, if they occured in-between our weather recording intervals... More about our weather records

Advertising

Clermont-Ferrand Weather History for October 1, 2017

Scroll right to see more
 ConditionsComfort  
Time TempWeatherWind HumidityBarometerVisibility
12:00 am
Sun, Oct 1
50 °FClear.2 mph94%30.18 "Hg10 mi
12:30 am50 °FClear.3 mph94%30.18 "Hg10 mi
1:00 am50 °FPassing clouds.No wind94%30.18 "HgN/A
1:30 am50 °FPassing clouds.2 mph94%30.18 "HgN/A
2:30 am50 °FClear.2 mph94%30.18 "Hg10 mi
3:00 am50 °FClear.1 mph94%30.18 "Hg10 mi
3:30 am50 °FClear.2 mph94%30.18 "Hg10 mi
4:00 am48 °FClear.1 mph100%30.18 "Hg10 mi
4:30 am48 °FClear.No wind94%30.18 "Hg10 mi
5:00 am48 °FClear.No wind94%30.18 "Hg10 mi
5:30 am48 °FClear.No wind94%30.18 "Hg10 mi
6:00 am48 °FClear.No wind94%30.18 "Hg10 mi
6:30 am48 °FClear.No wind94%30.18 "Hg10 mi
7:00 am48 °FClear.No wind94%30.18 "Hg10 mi
7:30 am48 °FLow clouds.No wind94%30.18 "HgN/A
8:00 am48 °FPassing clouds.3 mph94%30.18 "HgN/A
8:30 am48 °FSunny.3 mph94%30.18 "Hg10 mi
9:30 am52 °FSunny.6 mph94%30.21 "Hg10 mi
10:00 am52 °FSunny.3 mph94%30.21 "Hg10 mi
10:30 am54 °FPassing clouds.3 mph88%30.21 "HgN/A
11:00 am55 °FPassing clouds.6 mph82%30.21 "HgN/A
11:30 am57 °FSunny.10 mph82%30.18 "Hg10 mi
12:00 pm57 °FSunny.9 mph82%30.18 "Hg10 mi
12:30 pm59 °FSunny.9 mph77%30.18 "Hg10 mi
1:00 pm59 °FSunny.9 mph77%30.18 "Hg10 mi
1:30 pm61 °FSunny.8 mph72%30.18 "Hg10 mi
2:00 pm63 °FPassing clouds.7 mph68%30.18 "HgN/A
2:30 pm63 °FSunny.6 mph59%30.15 "Hg10 mi
3:00 pm63 °FPartly sunny.3 mph59%30.15 "HgN/A
3:30 pm63 °FPartly sunny.5 mph64%30.15 "HgN/A
4:00 pm63 °FCloudy.5 mph64%30.15 "HgN/A
4:30 pm63 °FPartly sunny.3 mph64%30.15 "HgN/A
5:00 pm63 °FMostly cloudy.3 mph68%30.15 "HgN/A
5:30 pm63 °FMostly cloudy.3 mph68%30.15 "HgN/A
6:00 pm63 °FMostly cloudy.2 mph68%30.15 "HgN/A
6:30 pm63 °FMostly cloudy.3 mph68%30.15 "HgN/A
7:00 pm63 °FPartly sunny.2 mph68%30.15 "HgN/A
7:30 pm63 °FOvercast.1 mph64%30.15 "HgN/A
8:00 pm61 °FOvercast.3 mph72%30.15 "HgN/A
8:30 pm61 °FOvercast.No wind72%30.15 "HgN/A
9:00 pm61 °FMostly cloudy.2 mph72%30.15 "HgN/A
9:30 pm61 °FMostly cloudy.No wind77%30.18 "HgN/A
10:00 pm61 °FMostly cloudy.No wind77%30.18 "HgN/A
10:30 pm61 °FMostly cloudy.3 mph77%30.18 "HgN/A
11:00 pm61 °FMostly cloudy.2 mph77%30.18 "HgN/A
11:30 pm59 °FMostly cloudy.2 mph88%30.18 "HgN/A
Weather by CustomWeather, © 2019

See weather overview